Regional Weather Roundup
Issued by NWS

Home | Current Version | Previous Version | Text Only | Print | Product List | Glossary Off
Versions: 1 2 3 4 5 6 7 8 9 10 11 12 13 14 15 16 17 18 19 20 21 22 23 24 25 26 27 28 29 30 31 32 33 34 35 36 37 38 39 40 41 42 43 44 45 46 47 48 49 50

000
ASUS43 KMPX 290210
RWRMN
WEATHER ROUNDUP FOR MINNESOTA
NATIONAL WEATHER SERVICE TWIN CITIES/CHANHASSEN MN
900 PM CDT THU MAY 28 2015


NOTE: "FAIR" INDICATES FEW OR NO CLOUDS BELOW 12,000 FEET WITH NO
SIGNIFICANT WEATHER AND/OR OBSTRUCTIONS TO VISIBILITY. N/A MEANS
CURRENT SKY AND/OR WEATHER CONDITIONS ARE NOT AVAILABLE.

MNZ060>063-068>070-290300-
   Twin Cities Metro

CITY           SKY/WX    TMP DP  RH WIND       PRES   REMARKS
TWIN CITIES    CLOUDY    77  51  40 SE10      29.90S
ST PAUL        MOCLDY    74  52  46 SE8       29.90S
CRYSTAL        MOCLDY    78  50  37 S13       29.88S
BLAINE         MOCLDY    79  52  38 S13G21    29.90R
LAKEVILLE      MOCLDY    73  52  46 S9G16     29.91S
EDEN PRAIRIE   MOCLDY    75  51  43 SE9       29.89R
SOUTH ST PAUL  MOCLDY    77  49  37 S7        29.90S
LAKE ELMO      FAIR      73  54  49 SE9       29.92S
$$
MNZ001>005-007-008-013>017-022>024-027-028-290300-
   Northwest Minnesota

CITY           SKY/WX    TMP DP  RH WIND       PRES   REMARKS
BEMIDJI        HVY RAIN  62  58  86 S6        29.82F
HALLOCK        RAIN      64  63  94 N8        29.80F
ROSEAU         CLOUDY    63  57  82 CALM      29.78F
WARROAD        CLOUDY    61  57  88 SE5       29.79F
THIEF RVR FALL CLOUDY    66  63  88 CALM      29.81F
CROOKSTON      CLOUDY    66  63  88 N3        29.80F
FOSSTON        CLOUDY    61  59  94 CALM      29.84R
DETROIT LAKES  RAIN      63  61  94 S10       29.87R
MOORHEAD       CLOUDY    64  59  82 S10       29.81R
PARK RAPIDS    CLOUDY    70  58  65 NW10      29.85R
MAHNOMEN       CLOUDY    65  60  84 SW9       29.84R
$$
MNZ006-009>011-018-025>026-290300-
   North Central Minnesota

CITY           SKY/WX    TMP DP  RH WIND       PRES   REMARKS
BAUDETTE       LGT RAIN  61  59  93 SE9       29.83F FOG
FLAG ISLAND    LGT RAIN  59  57  94 SE3       29.79F
INTL FALLS     LGT RAIN  59  57  93 N12       29.86R
WASKISH        RAIN      61  57  88 CALM      29.85F
BIG FORK       CLOUDY    72  54  53 S3        29.83F
LONGVILLE      CLOUDY    70  54  56 SE5       29.84R
GRAND RAPIDS   CLOUDY    73  54  49 S9        29.86S
CRANE LAKE     CLOUDY    72  52  49 S6        29.85S
ORR            CLOUDY    72  50  46 S5        29.82S
COOK           CLOUDY    70  52  52 S7        29.86F
WALKER         CLOUDY    68  56  65 NW7       29.85R
$$
MNZ012-019>021-037-290300-
   Northeast Minnesota

CITY           SKY/WX    TMP DP  RH WIND       PRES   REMARKS
DULUTH         CLOUDY    45  42  89 E10       29.93S FOG
HIBBING        CLOUDY    62  50  64 SE6       29.89R
EVELETH        CLOUDY    61  48  63 SE3       29.91R
DULUTH HARBOR  CLOUDY    41  39  93 E8        29.97S FOG
TWO HARBORS    PTCLDY    48  45  87 E3        29.93S
SILVER BAY     PTCLDY    48  45  87 NE3       29.94S
GRAND MARAIS     N/A     43  40  89 E3        29.94F
G MARAIS ARPRT MOCLDY    52  46  82 CALM      29.96S
$$
MNZ029>031-032-039>041-046>048-054>057-064-290300-
   West Central Minnesota

CITY           SKY/WX    TMP DP  RH WIND       PRES   REMARKS
FERGUS FALLS   CLOUDY    64  57  77 N10       29.82S
WHEATON        CLOUDY    75  55  50 S9G20     29.80R
MORRIS         MOCLDY    75  55  50 S12       29.81R
ALEXANDRIA     PTCLDY    75  49  39 S13       29.84R
ELBOW LAKE     LGT RAIN  68  56  65 N20       29.83R
WADENA         CLOUDY    73  52  46 S12       29.82R
GLENWOOD       PTCLDY    72  52  49 S12       29.85S
APPLETON       MOCLDY    79  54  41 S12       29.82R
BENSON         MOCLDY    75  54  46 SW15      29.83R
ORTONVILLE     MOCLDY    75  57  53 S12       29.81R
MADISON        MOCLDY    75  54  46 S13       29.84R
WILLMAR          N/A     77  59  53 S6        29.88R
$$
MNZ033>034-036-042>043-049>051-058-059-290300-
   Central Minnesota

CITY           SKY/WX    TMP DP  RH WIND       PRES   REMARKS
ST CLOUD       PTCLDY    73  53  49 S8        29.87R
SAUK CENTRE    FAIR      72  52  48 S10       29.85S
PAYNESVILLE    MOCLDY    73  50  44 SE10G16   29.88R
AITKIN         MOCLDY    75  52  43 S9        29.86R
PINE RIVER     MOCLDY    73  54  49 S8        29.87S
BRAINERD       MOCLDY    71  53  52 S8        29.86R
STAPLES        MOCLDY    73  48  40 S9        29.83R
LONG PRAIRIE   FAIR      72  50  46 SE13      29.85S
LITTLE FALLS   PTCLDY    72  46  40 SE7       29.86S
LITCHFIELD     MOCLDY    75  55  50 S5        29.88S
BUFFALO        MOCLDY    74  51  43 SE5       29.89S
MAPLE LAKE     MOCLDY    76  53  44 S5        29.89R
$$
MNZ037-044-045-052-053-290300-
   East Central Minnesota

CITY           SKY/WX    TMP DP  RH WIND       PRES   REMARKS
PRINCETON      MOCLDY    75  52  43 SE6       29.89S
MORA           PTCLDY    73  50  43 S6        29.91S
CAMBRIDGE      MOCLDY    77  55  47 SE3       29.88S
RUSH CITY      MOCLDY    73  54  51 SE5       29.90F
MOOSE LAKE     PTCLDY    52  45  76 NE3       29.90R
HINCKLEY       FAIR      72  54  53 S7        29.90S
CLOQUET        MOCLDY    45  43  93 E6        29.93S
MCGREGOR       CLOUDY    73  54  49 S9        29.88S
$$
MNZ071>073-080-081-089-090-097-098-290300-
   Southwest Minnesota

CITY           SKY/WX    TMP DP  RH WIND       PRES   REMARKS
MONTEVIDEO     CLOUDY    77  57  50 SW14G20   29.85R
GRANITE FALLS  CLOUDY    75  57  53 S22       29.88R
CANBY          MOCLDY    74  54  49 S12G18    29.86R
MARSHALL       CLOUDY    73  54  49 S17       29.87R
REDWOOD FALLS  CLOUDY    74  56  53 S18       29.89R
OLIVIA         CLOUDY    72  52  49 S17G26    29.88R
PIPESTONE      MOCLDY    70  57  64 S16       29.89S
WINDOM         MOCLDY    70  59  68 S14G22    29.93R
WORTHINGTON    CLOUDY    66  55  68 S14       29.93R
JACKSON        MOCLDY    68  61  77 S13G26    29.95R
TRACY          CLOUDY    72  58  61 S13G20    29.90R
SLAYTON        CLOUDY    69  57  65 S17G24    29.92R
$$
MNZ065>067-074>077-082>085-091>093-290300-
   South Central Minnesota

CITY           SKY/WX    TMP DP  RH WIND       PRES   REMARKS
MANKATO        MOCLDY    75  55  50 S12G20    29.91R
NEW ULM        CLOUDY    72  55  56 S13G23    29.90R
ST JAMES       MOCLDY    72  61  68 S20G28    29.93R
FAIRMONT       MOCLDY    70  55  60 S17       29.93R
GLENCOE        MOCLDY    77  58  52 S9        29.89R
FARIBAULT      MOCLDY    73  54  49 SE9       29.92S
OWATONNA       MOCLDY    75  52  43 S14G20    29.93R
WASECA         MOCLDY    73  52  46 S21G26    29.93R
ALBERT LEA     MOCLDY    73  52  46 S10G17    29.93F
$$
MNZ078>079-086>088-094>096-290300-
   Southeast Minnesota

CITY           SKY/WX    TMP DP  RH WIND       PRES   REMARKS
ROCHESTER      MOCLDY    72  53  51 S14       29.97S
RED WING       PTCLDY    75  52  43 SE9       29.92S
STANTON        MOCLDY    76  51  41 S14       29.90F
DODGE CENTER   PTCLDY    73  54  49 S13       29.95S
WINONA         PTCLDY    73  55  53 SE6       29.96F
AUSTIN         MOCLDY    72  54  53 S9G17     29.96R
PRESTON        MOCLDY    70  52  53 S7        29.98F
$$
ABBREVIATIONS USED IN REMARKS
   TC - TEMPERATURES IN CELSIUS
  WCI - WIND CHILL INDEX
   HX - HEAT INDEX
  VSB - VISIBILITY
$$


USA.gov is the U.S. government's official web portal to all federal, state and local government web resources and services.